Location: SE Lincoln, NE
(40.7805°N, 96.6275°W)
Time: 07:23:00
(UTC-05:00)

ISS - Pass Details

Date: 15 May 2021
Orbit: 417 x 422 km, 51.6° (Epoch: 20 June)

Event Time Altitude Azimuth Distance (km) Brightness Sun altitude
Rises 21:10:10 0° 207° (SSW) 2,345 0.0 -6.2°
Reaches altitude 10° 21:12:26 10° 194° (SSW) 1,487 -1.1 -6.6°
Maximum altitude 21:15:19 27° 135° (SE) 834 -2.8 -7.1°
Drops below altitude 10° 21:18:13 10° 75° (ENE) 1,498 -1.3 -7.5°
Sets 21:20:30 0° 63° (ENE) 2,367 -0.2 -7.9°
